Time,TemperatureF,DewpointF,PressureIn,WindDirection,WindDirectionDegrees,WindSpeedMPH,WindSpeedGustMPH,Humidity,HourlyPrecipIn,Conditions,Clouds,dailyrainin,SoftwareType,DateUTC
2013-04-19 00:01:00,52.3,38.9,30.11,SSW,211,0.0,2.0,60,0.00,,,0.00,WUHU216DAVISVP2,2013-04-19 04:01:00,
2013-04-19 00:06:00,52.2,39.7,30.11,SSW,192,1.3,3.0,62,0.00,,,0.00,WUHU216DAVISVP2,2013-04-19 04:06:00,
2013-04-19 00:11:00,52.1,40.0,30.10,SSW,213,1.3,3.0,63,0.00,,,0.00,WUHU216DAVISVP2,2013-04-19 04:11:00,
2013-04-19 00:16:00,52.0,40.3,30.10,SSW,211,1.0,4.0,64,0.00,,,0.00,WUHU216DAVISVP2,2013-04-19 04:16:00,
2013-04-19 00:21:00,51.9,40.6,30.09,SE,130,1.3,5.0,65,0.00,,,0.00,WUHU216DAVISVP2,2013-04-19 04:21:00,
2013-04-19 00:26:00,51.9,41.0,30.09,SE,134,0.0,5.0,66,0.00,,,0.00,WUHU216DAVISVP2,2013-04-19 04:26:00,
2013-04-19 00:31:00,51.8,41.3,30.09,SSE,153,0.0,5.0,67,0.00,,,0.00,WUHU216DAVISVP2,2013-04-19 04:31:00,
2013-04-19 00:36:00,51.7,41.6,30.09,SSE,153,1.2,5.0,68,0.00,,,0.00,WUHU216DAVISVP2,2013-04-19 04:36:00,
2013-04-19 00:41:00,51.6,41.9,30.08,SSE,153,2.0,4.0,69,0.00,,,0.00,WUHU216DAVISVP2,2013-04-19 04:41:00,
2013-04-19 00:46:00,51.5,41.8,30.08,SSE,153,2.5,4.0,69,0.00,,,0.00,WUHU216DAVISVP2,2013-04-19 04:46:00,
2013-04-19 00:51:00,51.5,42.5,30.08,South,189,1.8,4.0,71,0.00,,,0.00,WUHU216DAVISVP2,2013-04-19 04:51:00,
2013-04-19 00:56:00,51.4,42.4,30.07,SW,221,1.8,5.0,71,0.00,,,0.00,WUHU216DAVISVP2,2013-04-19 04:56:00,
2013-04-19 01:01:00,51.4,42.8,30.07,SW,222,1.4,6.0,72,0.00,,,0.00,WUHU216DAVISVP2,2013-04-19 05:01:00,
2013-04-19 01:06:00,51.4,42.8,30.06,WSW,244,1.0,6.0,72,0.00,,,0.00,WUHU216DAVISVP2,2013-04-19 05:06:00,
2013-04-19 01:11:00,51.4,43.1,30.06,SE,135,1.7,6.0,73,0.00,,,0.00,WUHU216DAVISVP2,2013-04-19 05:11:00,
2013-04-19 01:16:00,51.3,43.0,30.06,WSW,246,0.0,6.0,73,0.00,,,0.00,WUHU216DAVISVP2,2013-04-19 05:16:00,
2013-04-19 01:21:00,51.4,43.1,30.06,WSW,245,1.0,6.0,73,0.00,,,0.00,WUHU216DAVISVP2,2013-04-19 05:21:00,
2013-04-19 01:26:00,51.3,43.4,30.06,WSW,242,0.0,6.0,74,0.00,,,0.00,WUHU216DAVISVP2,2013-04-19 05:26:00,
2013-04-19 01:31:00,51.3,43.3,30.06,WSW,242,1.0,6.0,74,0.00,,,0.00,WUHU216DAVISVP2,2013-04-19 05:31:00,
2013-04-19 01:36:00,51.3,43.3,30.05,WSW,242,1.0,4.0,74,0.00,,,0.00,WUHU216DAVISVP2,2013-04-19 05:36:00,
2013-04-19 01:41:00,51.3,43.3,30.05,WSW,242,1.2,2.0,74,0.00,,,0.00,WUHU216DAVISVP2,2013-04-19 05:41:00,
2013-04-19 01:46:00,51.3,43.6,30.05,WSW,239,1.3,2.0,75,0.00,,,0.00,WUHU216DAVISVP2,2013-04-19 05:46:00,
2013-04-19 01:51:00,51.3,43.6,30.04,WSW,237,1.0,2.0,75,0.00,,,0.00,WUHU216DAVISVP2,2013-04-19 05:51:00,
2013-04-19 01:56:00,51.3,44.0,30.04,SW,220,1.2,3.0,76,0.00,,,0.00,WUHU216DAVISVP2,2013-04-19 05:56:00,
2013-04-19 02:01:00,51.3,44.0,30.03,South,187,1.0,3.0,76,0.00,,,0.00,WUHU216DAVISVP2,2013-04-19 06:01:00,
2013-04-19 02:06:00,51.3,44.0,30.03,South,187,1.0,3.0,76,0.00,,,0.00,WUHU216DAVISVP2,2013-04-19 06:06:00,
2013-04-19 02:11:00,51.3,44.3,30.03,South,187,0.0,3.0,77,0.00,,,0.00,WUHU216DAVISVP2,2013-04-19 06:11:00,
2013-04-19 02:16:00,51.3,44.3,30.02,South,187,0.0,2.0,77,0.00,,,0.00,WUHU216DAVISVP2,2013-04-19 06:16:00,
2013-04-19 02:21:00,51.3,44.3,30.02,South,187,0.0,1.0,77,0.00,,,0.00,WUHU216DAVISVP2,2013-04-19 06:21:00,
2013-04-19 02:26:00,51.3,44.7,30.02,South,188,1.0,1.0,78,0.00,,,0.00,WUHU216DAVISVP2,2013-04-19 06:26:00,
2013-04-19 02:31:00,51.4,44.8,30.02,WSW,238,0.0,3.0,78,0.00,,,0.00,WUHU216DAVISVP2,2013-04-19 06:31:00,
2013-04-19 02:36:00,51.4,45.2,30.02,WSW,238,1.0,3.0,79,0.00,,,0.00,WUHU216DAVISVP2,2013-04-19 06:36:00,
2013-04-19 02:41:00,51.5,45.2,30.02,WSW,242,0.0,3.0,79,0.00,,,0.00,WUHU216DAVISVP2,2013-04-19 06:41:00,
2013-04-19 02:46:00,51.5,45.6,30.02,South,190,1.0,2.0,80,0.00,,,0.00,WUHU216DAVISVP2,2013-04-19 06:46:00,
2013-04-19 02:51:00,51.6,45.7,30.01,South,181,0.0,2.0,80,0.00,,,0.00,WUHU216DAVISVP2,2013-04-19 06:51:00,
2013-04-19 02:56:00,51.7,45.8,30.01,SW,236,3.2,8.0,80,0.00,,,0.00,WUHU216DAVISVP2,2013-04-19 06:56:00,
2013-04-19 03:01:00,51.8,46.2,30.02,WSW,242,1.0,8.0,81,0.00,,,0.00,WUHU216DAVISVP2,2013-04-19 07:01:00,
2013-04-19 03:06:00,51.9,46.3,30.02,SW,236,3.3,8.0,81,0.00,,,0.00,WUHU216DAVISVP2,2013-04-19 07:06:00,
2013-04-19 03:11:00,52.0,46.4,30.02,SW,214,2.8,8.0,81,0.00,,,0.00,WUHU216DAVISVP2,2013-04-19 07:11:00,
2013-04-19 03:16:00,52.0,46.4,30.02,SSW,198,1.0,6.0,81,0.00,,,0.00,WUHU216DAVISVP2,2013-04-19 07:16:00,
2013-04-19 03:21:00,52.0,46.7,30.02,SW,215,1.0,6.0,82,0.00,,,0.00,WUHU216DAVISVP2,2013-04-19 07:21:00,
2013-04-19 03:26:00,52.0,46.7,30.01,SSW,203,2.0,5.0,82,0.00,,,0.00,WUHU216DAVISVP2,2013-04-19 07:26:00,
2013-04-19 03:31:00,52.0,46.7,30.01,SSW,196,0.0,5.0,82,0.00,,,0.00,WUHU216DAVISVP2,2013-04-19 07:31:00,
2013-04-19 03:36:00,52.0,46.7,30.01,SSW,196,1.0,4.0,82,0.00,,,0.00,WUHU216DAVISVP2,2013-04-19 07:36:00,
2013-04-19 03:41:00,52.0,47.0,30.01,SSW,196,1.0,2.0,83,0.00,,,0.00,WUHU216DAVISVP2,2013-04-19 07:41:00,
2013-04-19 03:46:00,52.0,47.0,30.01,SW,219,1.0,2.0,83,0.00,,,0.00,WUHU216DAVISVP2,2013-04-19 07:46:00,
2013-04-19 03:51:00,51.9,46.9,30.01,SW,219,0.0,2.0,83,0.00,,,0.00,WUHU216DAVISVP2,2013-04-19 07:51:00,
2013-04-19 03:56:00,51.9,47.2,30.00,SW,219,0.0,2.0,84,0.00,,,0.00,WUHU216DAVISVP2,2013-04-19 07:56:00,
2013-04-19 04:01:00,51.9,47.2,30.00,SW,219,0.0,2.0,84,0.00,,,0.00,WUHU216DAVISVP2,2013-04-19 08:01:00,
2013-04-19 04:06:00,51.9,47.2,30.00,SW,219,0.0,2.0,84,0.00,,,0.00,WUHU216DAVISVP2,2013-04-19 08:06:00,
2013-04-19 04:11:00,51.9,47.2,30.00,SW,219,0.0,2.0,84,0.00,,,0.00,WUHU216DAVISVP2,2013-04-19 08:11:00,
2013-04-19 04:16:00,51.8,47.1,30.00,SW,219,0.0,1.0,84,0.00,,,0.00,WUHU216DAVISVP2,2013-04-19 08:16:00,
2013-04-19 04:21:00,51.8,47.1,29.99,SW,219,0.0,1.0,84,0.00,,,0.00,WUHU216DAVISVP2,2013-04-19 08:21:00,
2013-04-19 04:26:00,51.8,47.1,29.99,SW,219,0.0,1.0,84,0.00,,,0.00,WUHU216DAVISVP2,2013-04-19 08:26:00,
2013-04-19 04:31:00,51.7,47.0,29.99,SW,219,0.0,0.0,84,0.00,,,0.00,WUHU216DAVISVP2,2013-04-19 08:31:00,
2013-04-19 04:36:00,51.7,47.3,29.98,SW,219,0.0,0.0,85,0.00,,,0.00,WUHU216DAVISVP2,2013-04-19 08:36:00,
2013-04-19 04:41:00,51.7,47.3,29.98,SW,219,0.0,0.0,85,0.00,,,0.00,WUHU216DAVISVP2,2013-04-19 08:41:00,
2013-04-19 04:46:00,51.6,47.2,29.98,SW,219,0.0,0.0,85,0.00,,,0.00,WUHU216DAVISVP2,2013-04-19 08:46:00,
2013-04-19 04:51:00,51.6,47.2,29.97,SW,219,0.0,0.0,85,0.00,,,0.00,WUHU216DAVISVP2,2013-04-19 08:51:00,
2013-04-19 04:56:00,51.5,47.1,29.97,SW,219,0.0,0.0,85,0.00,,,0.00,WUHU216DAVISVP2,2013-04-19 08:56:00,
2013-04-19 05:01:00,51.5,47.1,29.97,SW,219,0.0,0.0,85,0.00,,,0.00,WUHU216DAVISVP2,2013-04-19 09:01:00,
2013-04-19 05:06:00,51.5,47.1,29.96,SW,219,0.0,0.0,85,0.00,,,0.00,WUHU216DAVISVP2,2013-04-19 09:06:00,
2013-04-19 05:11:00,51.5,47.5,29.95,SW,219,0.0,0.0,86,0.00,,,0.00,WUHU216DAVISVP2,2013-04-19 09:11:00,
2013-04-19 05:16:00,51.4,47.0,29.95,SW,219,0.0,0.0,85,0.00,,,0.00,WUHU216DAVISVP2,2013-04-19 09:16:00,
2013-04-19 05:21:00,51.4,47.0,29.95,SW,219,0.0,0.0,85,0.00,,,0.00,WUHU216DAVISVP2,2013-04-19 09:21:00,
2013-04-19 05:26:00,51.3,47.3,29.94,SW,219,0.0,1.0,86,0.00,,,0.00,WUHU216DAVISVP2,2013-04-19 09:26:00,
2013-04-19 05:31:00,51.4,48.0,29.94,SW,219,0.0,1.0,88,0.00,,,0.00,WUHU216DAVISVP2,2013-04-19 09:31:00,
2013-04-19 05:36:00,51.5,48.1,29.94,SW,219,0.0,1.0,88,0.00,,,0.00,WUHU216DAVISVP2,2013-04-19 09:36:00,
2013-04-19 05:41:00,51.6,48.2,29.94,SW,219,0.0,1.0,88,0.00,,,0.00,WUHU216DAVISVP2,2013-04-19 09:41:00,
2013-04-19 05:46:00,51.7,48.6,29.94,SW,219,0.0,1.0,89,0.00,,,0.00,WUHU216DAVISVP2,2013-04-19 09:46:00,
2013-04-19 05:51:00,51.7,48.6,29.95,SW,219,0.0,1.0,89,0.00,,,0.00,WUHU216DAVISVP2,2013-04-19 09:51:00,
2013-04-19 05:56:00,51.8,48.7,29.95,SW,219,0.0,0.0,89,0.00,,,0.00,WUHU216DAVISVP2,2013-04-19 09:56:00,
2013-04-19 06:01:00,51.9,48.8,29.95,SW,219,0.0,0.0,89,0.00,,,0.00,WUHU216DAVISVP2,2013-04-19 10:01:00,
2013-04-19 06:06:00,51.9,48.8,29.96,SW,219,0.0,0.0,89,0.00,,,0.00,WUHU216DAVISVP2,2013-04-19 10:06:00,
2013-04-19 06:11:00,51.9,48.8,29.97,SW,219,1.0,1.0,89,0.00,,,0.00,WUHU216DAVISVP2,2013-04-19 10:11:00,
2013-04-19 06:16:00,51.9,48.8,29.97,SW,219,0.0,1.0,89,0.00,,,0.00,WUHU216DAVISVP2,2013-04-19 10:16:00,
2013-04-19 06:21:00,51.9,48.7,29.97,SW,219,0.0,1.0,89,0.00,,,0.00,WUHU216DAVISVP2,2013-04-19 10:21:00,
2013-04-19 06:26:00,51.9,48.7,29.97,SW,219,0.0,1.0,89,0.00,,,0.00,WUHU216DAVISVP2,2013-04-19 10:26:00,
2013-04-19 06:31:00,52.0,48.8,29.97,SW,219,0.0,0.0,89,0.00,,,0.00,WUHU216DAVISVP2,2013-04-19 10:31:00,
2013-04-19 06:36:00,52.0,48.8,29.97,SW,219,0.0,0.0,89,0.00,,,0.00,WUHU216DAVISVP2,2013-04-19 10:36:00,
2013-04-19 06:41:00,52.1,49.2,29.96,SW,219,1.0,1.0,90,0.00,,,0.00,WUHU216DAVISVP2,2013-04-19 10:41:00,
2013-04-19 06:46:00,52.1,49.2,29.96,SW,219,0.0,1.0,90,0.00,,,0.00,WUHU216DAVISVP2,2013-04-19 10:46:00,
2013-04-19 06:51:00,52.2,49.0,29.96,SW,219,0.0,1.0,89,0.00,,,0.00,WUHU216DAVISVP2,2013-04-19 10:51:00,
2013-04-19 06:56:00,52.2,49.3,29.96,SW,219,0.0,1.0,90,0.00,,,0.00,WUHU216DAVISVP2,2013-04-19 10:56:00,
2013-04-19 07:01:00,52.4,49.5,29.96,SW,219,0.0,1.0,90,0.00,,,0.00,WUHU216DAVISVP2,2013-04-19 11:01:00,
2013-04-19 07:06:00,52.4,49.5,29.96,SW,219,0.0,0.0,90,0.00,,,0.00,WUHU216DAVISVP2,2013-04-19 11:06:00,
2013-04-19 07:11:00,52.5,49.6,29.96,SW,219,0.0,0.0,90,0.00,,,0.00,WUHU216DAVISVP2,2013-04-19 11:11:00,
2013-04-19 07:16:00,52.6,49.7,29.96,SW,219,0.0,0.0,90,0.00,,,0.00,WUHU216DAVISVP2,2013-04-19 11:16:00,
2013-04-19 07:21:00,52.8,49.9,29.96,SW,219,0.0,0.0,90,0.00,,,0.00,WUHU216DAVISVP2,2013-04-19 11:21:00,
2013-04-19 07:26:00,52.8,49.9,29.95,SW,219,0.0,0.0,90,0.00,,,0.00,WUHU216DAVISVP2,2013-04-19 11:26:00,
2013-04-19 07:31:00,53.0,50.1,29.95,SW,219,0.0,0.0,90,0.00,,,0.00,WUHU216DAVISVP2,2013-04-19 11:31:00,
2013-04-19 07:36:00,53.1,50.2,29.95,SW,219,0.0,0.0,90,0.00,,,0.00,WUHU216DAVISVP2,2013-04-19 11:36:00,
2013-04-19 07:41:00,53.3,50.4,29.95,SW,219,0.0,0.0,90,0.00,,,0.00,WUHU216DAVISVP2,2013-04-19 11:41:00,
2013-04-19 07:46:00,53.5,50.6,29.94,SW,219,0.0,1.0,90,0.00,,,0.00,WUHU216DAVISVP2,2013-04-19 11:46:00,
2013-04-19 07:51:00,53.9,51.0,29.94,SW,219,0.0,1.0,90,0.00,,,0.00,WUHU216DAVISVP2,2013-04-19 11:51:00,
2013-04-19 07:56:00,54.2,51.3,29.94,SW,219,0.0,1.0,90,0.00,,,0.00,WUHU216DAVISVP2,2013-04-19 11:56:00,
2013-04-19 08:01:00,54.7,51.8,29.94,SW,219,0.0,1.0,90,0.00,,,0.00,WUHU216DAVISVP2,2013-04-19 12:01:00,
2013-04-19 08:06:00,55.1,51.9,29.93,SW,219,0.0,1.0,89,0.00,,,0.00,WUHU216DAVISVP2,2013-04-19 12:06:00,
2013-04-19 08:11:00,55.5,52.6,29.93,SW,219,0.0,1.0,90,0.00,,,0.00,WUHU216DAVISVP2,2013-04-19 12:11:00,
2013-04-19 08:16:00,55.9,53.0,29.93,SW,219,0.0,1.0,90,0.00,,,0.00,WUHU216DAVISVP2,2013-04-19 12:16:00,
2013-04-19 08:21:00,56.3,53.4,29.93,SW,219,0.0,1.0,90,0.00,,,0.00,WUHU216DAVISVP2,2013-04-19 12:21:00,
2013-04-19 08:26:00,56.7,53.5,29.93,SW,219,1.0,1.0,89,0.00,,,0.00,WUHU216DAVISVP2,2013-04-19 12:26:00,
2013-04-19 08:31:00,56.9,53.7,29.93,SW,219,0.0,1.0,89,0.00,,,0.00,WUHU216DAVISVP2,2013-04-19 12:31:00,
2013-04-19 08:36:00,57.3,53.8,29.92,SW,219,0.0,1.0,88,0.00,,,0.00,WUHU216DAVISVP2,2013-04-19 12:36:00,
2013-04-19 08:41:00,57.6,54.1,29.92,SW,219,0.0,1.0,88,0.00,,,0.00,WUHU216DAVISVP2,2013-04-19 12:41:00,
2013-04-19 08:46:00,57.9,54.3,29.92,SW,219,1.0,1.0,88,0.00,,,0.00,WUHU216DAVISVP2,2013-04-19 12:46:00,
2013-04-19 08:51:00,58.2,54.3,29.92,SW,219,1.2,2.0,87,0.00,,,0.00,WUHU216DAVISVP2,2013-04-19 12:51:00,
2013-04-19 08:56:00,58.5,54.3,29.92,SW,219,0.0,2.0,86,0.00,,,0.00,WUHU216DAVISVP2,2013-04-19 12:56:00,
2013-04-19 09:01:00,58.9,54.7,29.93,SW,219,0.0,2.0,86,0.00,,,0.00,WUHU216DAVISVP2,2013-04-19 13:01:00,
2013-04-19 09:06:00,59.3,55.1,29.93,NW,316,1.3,6.0,86,0.00,,,0.00,WUHU216DAVISVP2,2013-04-19 13:06:00,
2013-04-19 09:11:00,59.7,55.5,29.92,SSW,200,3.0,6.0,86,0.00,,,0.00,WUHU216DAVISVP2,2013-04-19 13:11:00,
2013-04-19 09:16:00,60.1,55.6,29.92,SSW,194,1.9,6.0,85,0.00,,,0.00,WUHU216DAVISVP2,2013-04-19 13:16:00,
2013-04-19 09:21:00,60.4,55.6,29.91,SSW,212,4.0,6.0,84,0.00,,,0.00,WUHU216DAVISVP2,2013-04-19 13:21:00,
2013-04-19 09:26:00,60.5,55.7,29.91,SW,221,2.2,6.0,84,0.00,,,0.00,WUHU216DAVISVP2,2013-04-19 13:26:00,
2013-04-19 09:31:00,60.8,56.0,29.91,SSW,213,1.7,6.0,84,0.00,,,0.00,WUHU216DAVISVP2,2013-04-19 13:31:00,
2013-04-19 09:36:00,61.1,56.2,29.91,SSW,212,3.1,6.0,84,0.00,,,0.00,WUHU216DAVISVP2,2013-04-19 13:36:00,
2013-04-19 09:41:00,61.6,56.4,29.90,SSW,194,0.0,6.0,83,0.00,,,0.00,WUHU216DAVISVP2,2013-04-19 13:41:00,
2013-04-19 09:46:00,62.0,56.8,29.90,SSW,194,0.0,6.0,83,0.00,,,0.00,WUHU216DAVISVP2,2013-04-19 13:46:00,
2013-04-19 09:51:00,62.3,56.8,29.90,West,275,1.0,6.0,82,0.00,,,0.00,WUHU216DAVISVP2,2013-04-19 13:51:00,
2013-04-19 09:56:00,62.7,57.2,29.90,SW,231,1.3,4.0,82,0.00,,,0.00,WUHU216DAVISVP2,2013-04-19 13:56:00,
2013-04-19 10:01:00,63.1,57.2,29.90,SSW,200,4.0,4.0,81,0.00,,,0.00,WUHU216DAVISVP2,2013-04-19 14:01:00,
2013-04-19 10:06:00,63.2,57.0,29.90,SSW,194,1.3,6.0,80,0.00,,,0.00,WUHU216DAVISVP2,2013-04-19 14:06:00,
2013-04-19 10:11:00,63.4,57.2,29.89,WSW,248,1.3,7.0,80,0.00,,,0.00,WUHU216DAVISVP2,2013-04-19 14:11:00,
2013-04-19 10:16:00,63.6,57.4,29.89,WSW,254,1.1,7.0,80,0.00,,,0.00,WUHU216DAVISVP2,2013-04-19 14:16:00,
2013-04-19 10:21:00,63.9,57.7,29.89,SSW,206,4.0,7.0,80,0.00,,,0.00,WUHU216DAVISVP2,2013-04-19 14:21:00,
2013-04-19 10:26:00,64.3,57.4,29.89,North,355,3.0,7.0,78,0.00,,,0.00,WUHU216DAVISVP2,2013-04-19 14:26:00,
2013-04-19 10:31:00,64.9,57.6,29.89,South,180,7.0,7.0,77,0.00,,,0.00,WUHU216DAVISVP2,2013-04-19 14:31:00,
2013-04-19 10:36:00,65.1,57.8,29.89,SW,231,2.3,8.0,77,0.00,,,0.00,WUHU216DAVISVP2,2013-04-19 14:36:00,
2013-04-19 10:41:00,65.4,57.7,29.88,SW,232,0.0,8.0,76,0.00,,,0.00,WUHU216DAVISVP2,2013-04-19 14:41:00,
2013-04-19 10:46:00,65.7,58.0,29.88,SW,221,3.0,8.0,76,0.00,,,0.00,WUHU216DAVISVP2,2013-04-19 14:46:00,
2013-04-19 10:51:00,65.9,57.9,29.88,SSE,167,6.0,8.0,75,0.00,,,0.00,WUHU216DAVISVP2,2013-04-19 14:51:00,
2013-04-19 10:56:00,66.2,57.8,29.88,WSW,245,3.9,11.0,74,0.00,,,0.00,WUHU216DAVISVP2,2013-04-19 14:56:00,
2013-04-19 11:01:00,66.3,57.9,29.88,WNW,300,2.0,11.0,74,0.00,,,0.00,WUHU216DAVISVP2,2013-04-19 15:01:00,
2013-04-19 11:06:00,66.5,57.7,29.87,West,271,5.0,13.0,73,0.00,,,0.00,WUHU216DAVISVP2,2013-04-19 15:06:00,
2013-04-19 11:11:00,66.6,58.2,29.87,West,268,1.3,13.0,74,0.00,,,0.00,WUHU216DAVISVP2,2013-04-19 15:11:00,
2013-04-19 11:16:00,66.7,57.9,29.87,WSW,254,2.2,13.0,73,0.00,,,0.00,WUHU216DAVISVP2,2013-04-19 15:16:00,
2013-04-19 11:21:00,66.8,58.0,29.86,SSW,209,2.3,13.0,73,0.00,,,0.00,WUHU216DAVISVP2,2013-04-19 15:21:00,
2013-04-19 11:26:00,67.2,58.4,29.86,SSW,210,3.4,10.0,73,0.00,,,0.00,WUHU216DAVISVP2,2013-04-19 15:26:00,
2013-04-19 11:31:00,67.6,58.4,29.86,WSW,238,5.4,10.0,72,0.00,,,0.00,WUHU216DAVISVP2,2013-04-19 15:31:00,
2013-04-19 11:36:00,67.7,58.3,29.85,SSW,208,4.9,12.0,72,0.00,,,0.00,WUHU216DAVISVP2,2013-04-19 15:36:00,
2013-04-19 11:41:00,67.8,58.4,29.85,SW,230,2.8,15.0,72,0.00,,,0.00,WUHU216DAVISVP2,2013-04-19 15:41:00,
2013-04-19 11:46:00,68.0,58.2,29.85,SW,233,3.3,15.0,71,0.00,,,0.00,WUHU216DAVISVP2,2013-04-19 15:46:00,
2013-04-19 11:51:00,68.1,58.3,29.85,SSW,209,6.0,15.0,71,0.00,,,0.00,WUHU216DAVISVP2,2013-04-19 15:51:00,
2013-04-19 11:56:00,68.2,58.4,29.85,West,275,10.0,10.0,71,0.00,,,0.00,WUHU216DAVISVP2,2013-04-19 15:56:00,
2013-04-19 12:01:00,68.3,58.1,29.84,SSW,196,7.0,15.0,70,0.00,,,0.00,WUHU216DAVISVP2,2013-04-19 16:01:00,
2013-04-19 12:06:00,69.0,58.8,29.83,SW,235,3.5,15.0,70,0.00,,,0.00,WUHU216DAVISVP2,2013-04-19 16:06:00,
2013-04-19 12:11:00,70.0,59.0,29.83,SSW,208,4.2,15.0,68,0.00,,,0.00,WUHU216DAVISVP2,2013-04-19 16:11:00,
2013-04-19 12:16:00,71.1,59.2,29.83,SSW,210,5.1,16.0,66,0.00,,,0.00,WUHU216DAVISVP2,2013-04-19 16:16:00,
2013-04-19 12:21:00,72.0,59.4,29.83,SW,229,6.0,19.0,64,0.00,,,0.00,WUHU216DAVISVP2,2013-04-19 16:21:00,
2013-04-19 12:26:00,72.5,59.4,29.82,SW,222,14.0,19.0,63,0.00,,,0.00,WUHU216DAVISVP2,2013-04-19 16:26:00,
2013-04-19 12:31:00,72.3,59.2,29.83,West,262,7.0,18.0,63,0.00,,,0.00,WUHU216DAVISVP2,2013-04-19 16:31:00,
2013-04-19 12:36:00,72.0,58.9,29.82,SW,222,6.0,18.0,63,0.00,,,0.00,WUHU216DAVISVP2,2013-04-19 16:36:00,
2013-04-19 12:41:00,71.9,58.8,29.81,South,179,4.4,18.0,63,0.00,,,0.00,WUHU216DAVISVP2,2013-04-19 16:41:00,
2013-04-19 12:46:00,72.0,58.9,29.81,SSW,194,5.6,18.0,63,0.00,,,0.00,WUHU216DAVISVP2,2013-04-19 16:46:00,
2013-04-19 12:51:00,72.0,58.9,29.81,SSW,208,5.3,17.0,63,0.00,,,0.00,WUHU216DAVISVP2,2013-04-19 16:51:00,
2013-04-19 12:56:00,72.0,58.9,29.80,SW,233,4.2,16.0,63,0.00,,,0.00,WUHU216DAVISVP2,2013-04-19 16:56:00,
2013-04-19 13:01:00,72.1,58.6,29.81,West,260,6.0,16.0,62,0.00,,,0.00,WUHU216DAVISVP2,2013-04-19 17:01:00,
2013-04-19 13:06:00,72.2,58.7,29.80,WSW,240,4.6,16.0,62,0.00,,,0.00,WUHU216DAVISVP2,2013-04-19 17:06:00,
2013-04-19 13:11:00,72.5,58.9,29.80,SW,230,4.3,16.0,62,0.00,,,0.00,WUHU216DAVISVP2,2013-04-19 17:11:00,
2013-04-19 13:16:00,73.2,59.6,29.80,West,281,10.0,15.0,62,0.00,,,0.00,WUHU216DAVISVP2,2013-04-19 17:16:00,
2013-04-19 13:21:00,73.3,59.2,29.79,South,189,6.0,12.0,61,0.00,,,0.00,WUHU216DAVISVP2,2013-04-19 17:21:00,
2013-04-19 13:26:00,73.2,58.5,29.79,SSW,206,7.0,14.0,60,0.00,,,0.00,WUHU216DAVISVP2,2013-04-19 17:26:00,
2013-04-19 13:31:00,73.1,58.8,29.78,SSW,212,4.7,14.0,61,0.00,,,0.00,WUHU216DAVISVP2,2013-04-19 17:31:00,
2013-04-19 13:36:00,73.4,58.7,29.78,SSW,192,6.0,14.0,60,0.00,,,0.00,WUHU216DAVISVP2,2013-04-19 17:36:00,
2013-04-19 13:41:00,73.5,58.8,29.78,WSW,243,4.8,14.0,60,0.00,,,0.00,WUHU216DAVISVP2,2013-04-19 17:41:00,
2013-04-19 13:46:00,73.7,58.9,29.77,WSW,251,6.0,13.0,60,0.00,,,0.00,WUHU216DAVISVP2,2013-04-19 17:46:00,
2013-04-19 13:51:00,73.6,59.5,29.77,SW,214,5.1,13.0,61,0.00,,,0.00,WUHU216DAVISVP2,2013-04-19 17:51:00,
2013-04-19 13:56:00,73.8,59.2,29.77,SSW,211,7.0,14.0,60,0.00,,,0.00,WUHU216DAVISVP2,2013-04-19 17:56:00,
2013-04-19 14:01:00,73.4,58.9,29.77,SW,215,4.2,14.0,60,0.00,,,0.00,WUHU216DAVISVP2,2013-04-19 18:01:00,
2013-04-19 14:06:00,73.1,59.0,29.76,WSW,237,6.2,14.0,61,0.00,,,0.00,WUHU216DAVISVP2,2013-04-19 18:06:00,
2013-04-19 14:11:00,73.1,59.0,29.76,SSW,202,4.0,14.0,61,0.00,,,0.00,WUHU216DAVISVP2,2013-04-19 18:11:00,
2013-04-19 14:16:00,73.1,59.5,29.76,SW,231,1.6,12.0,62,0.00,,,0.00,WUHU216DAVISVP2,2013-04-19 18:16:00,
2013-04-19 14:21:00,73.3,59.7,29.75,SSW,210,4.4,12.0,62,0.00,,,0.00,WUHU216DAVISVP2,2013-04-19 18:21:00,
2013-04-19 14:26:00,73.2,59.1,29.75,SSW,212,8.0,12.0,61,0.00,,,0.00,WUHU216DAVISVP2,2013-04-19 18:26:00,
2013-04-19 14:31:00,73.2,59.6,29.75,SW,222,2.0,13.0,62,0.00,,,0.00,WUHU216DAVISVP2,2013-04-19 18:31:00,
2013-04-19 14:36:00,73.1,58.8,29.75,SW,221,3.3,13.0,61,0.00,,,0.00,WUHU216DAVISVP2,2013-04-19 18:36:00,
2013-04-19 14:41:00,73.1,58.8,29.74,SW,224,4.1,13.0,61,0.00,,,0.00,WUHU216DAVISVP2,2013-04-19 18:41:00,
2013-04-19 14:46:00,73.1,59.3,29.74,SSW,209,8.0,13.0,62,0.00,,,0.00,WUHU216DAVISVP2,2013-04-19 18:46:00,
2013-04-19 14:51:00,73.3,59.0,29.74,SSW,200,2.3,12.0,61,0.00,,,0.00,WUHU216DAVISVP2,2013-04-19 18:51:00,
2013-04-19 14:56:00,73.2,58.9,29.74,SW,218,5.6,13.0,61,0.00,,,0.00,WUHU216DAVISVP2,2013-04-19 18:56:00,
2013-04-19 15:01:00,73.1,59.5,29.73,SSW,212,1.7,13.0,62,0.00,,,0.00,WUHU216DAVISVP2,2013-04-19 19:01:00,
2013-04-19 15:06:00,73.0,59.4,29.73,SSW,202,1.3,13.0,62,0.00,,,0.00,WUHU216DAVISVP2,2013-04-19 19:06:00,
2013-04-19 15:11:00,73.0,59.4,29.74,SW,215,4.8,13.0,62,0.00,,,0.00,WUHU216DAVISVP2,2013-04-19 19:11:00,
2013-04-19 15:16:00,72.7,60.5,29.73,South,183,6.0,13.0,65,0.00,,,0.00,WUHU216DAVISVP2,2013-04-19 19:16:00,
2013-04-19 15:21:00,72.5,60.3,29.73,SSE,157,1.9,16.0,65,0.00,,,0.00,WUHU216DAVISVP2,2013-04-19 19:21:00,
2013-04-19 15:26:00,72.8,60.6,29.72,WNW,296,1.2,16.0,65,0.00,,,0.00,WUHU216DAVISVP2,2013-04-19 19:26:00,
2013-04-19 15:31:00,73.1,60.0,29.72,SSW,202,5.0,16.0,63,0.00,,,0.00,WUHU216DAVISVP2,2013-04-19 19:31:00,
2013-04-19 15:36:00,73.2,59.6,29.72,South,178,3.1,14.0,62,0.00,,,0.00,WUHU216DAVISVP2,2013-04-19 19:36:00,
2013-04-19 15:41:00,73.2,60.1,29.71,SSW,209,1.0,10.0,63,0.00,,,0.00,WUHU216DAVISVP2,2013-04-19 19:41:00,
2013-04-19 15:46:00,73.1,60.0,29.71,SSW,205,2.4,10.0,63,0.00,,,0.00,WUHU216DAVISVP2,2013-04-19 19:46:00,
2013-04-19 15:51:00,73.0,59.7,29.71,SSW,198,1.2,8.0,63,0.00,,,0.00,WUHU216DAVISVP2,2013-04-19 19:51:00,
2013-04-19 15:56:00,72.9,60.0,29.71,SSW,192,1.6,7.0,64,0.00,,,0.00,WUHU216DAVISVP2,2013-04-19 19:56:00,
2013-04-19 16:01:00,72.8,59.9,29.71,SSE,163,1.8,7.0,64,0.00,,,0.00,WUHU216DAVISVP2,2013-04-19 20:01:00,
2013-04-19 16:06:00,72.7,59.8,29.71,SSW,213,2.9,7.0,64,0.00,,,0.00,WUHU216DAVISVP2,2013-04-19 20:06:00,
2013-04-19 16:11:00,72.7,59.8,29.70,SSW,200,3.6,11.0,64,0.00,,,0.00,WUHU216DAVISVP2,2013-04-19 20:11:00,
2013-04-19 16:16:00,72.8,59.9,29.70,SW,220,4.0,11.0,64,0.00,,,0.00,WUHU216DAVISVP2,2013-04-19 20:16:00,
2013-04-19 16:21:00,73.0,59.9,29.70,East,98,5.0,11.0,63,0.00,,,0.00,WUHU216DAVISVP2,2013-04-19 20:21:00,
2013-04-19 16:26:00,73.4,60.2,29.70,South,182,2.7,11.0,63,0.00,,,0.00,WUHU216DAVISVP2,2013-04-19 20:26:00,
2013-04-19 16:31:00,73.9,60.7,29.69,SW,223,3.6,9.0,63,0.00,,,0.00,WUHU216DAVISVP2,2013-04-19 20:31:00,
2013-04-19 16:36:00,74.4,60.7,29.69,SSE,155,6.0,14.0,62,0.00,,,0.00,WUHU216DAVISVP2,2013-04-19 20:36:00,
2013-04-19 16:41:00,74.5,60.8,29.68,SSW,197,5.0,14.0,62,0.00,,,0.00,WUHU216DAVISVP2,2013-04-19 20:41:00,
2013-04-19 16:46:00,74.4,60.7,29.69,SE,133,5.0,14.0,62,0.00,,,0.00,WUHU216DAVISVP2,2013-04-19 20:46:00,
2013-04-19 16:51:00,74.1,60.9,29.69,SE,143,4.0,14.0,63,0.00,,,0.00,WUHU216DAVISVP2,2013-04-19 20:51:00,
2013-04-19 16:56:00,73.4,60.7,29.68,SW,215,3.4,12.0,64,0.00,,,0.00,WUHU216DAVISVP2,2013-04-19 20:56:00,
2013-04-19 17:01:00,73.0,61.2,29.68,SSW,197,4.3,12.0,66,0.00,,,0.00,WUHU216DAVISVP2,2013-04-19 21:01:00,
2013-04-19 17:06:00,72.3,61.8,29.68,SSW,209,3.7,12.0,69,0.00,,,0.00,WUHU216DAVISVP2,2013-04-19 21:06:00,
2013-04-19 17:11:00,71.7,62.0,29.68,SSE,167,2.0,12.0,71,0.00,,,0.00,WUHU216DAVISVP2,2013-04-19 21:11:00,
2013-04-19 17:16:00,71.2,61.7,29.68,SW,217,3.1,17.0,72,0.00,,,0.00,WUHU216DAVISVP2,2013-04-19 21:16:00,
2013-04-19 17:21:00,70.8,61.7,29.67,SW,226,6.9,17.0,73,0.00,,,0.00,WUHU216DAVISVP2,2013-04-19 21:21:00,
2013-04-19 17:26:00,70.7,62.0,29.67,SSW,206,5.6,17.0,74,0.00,,,0.00,WUHU216DAVISVP2,2013-04-19 21:26:00,
2013-04-19 17:31:00,70.7,62.0,29.67,SSW,211,5.3,16.0,74,0.00,,,0.00,WUHU216DAVISVP2,2013-04-19 21:31:00,
2013-04-19 17:36:00,70.6,61.9,29.66,SSE,162,4.1,16.0,74,0.00,,,0.00,WUHU216DAVISVP2,2013-04-19 21:36:00,
2013-04-19 17:41:00,70.5,62.2,29.66,WSW,250,9.0,13.0,75,0.00,,,0.00,WUHU216DAVISVP2,2013-04-19 21:41:00,
2013-04-19 17:46:00,70.3,62.1,29.66,SW,225,5.0,15.0,75,0.00,,,0.00,WUHU216DAVISVP2,2013-04-19 21:46:00,
2013-04-19 17:51:00,70.2,62.4,29.66,SE,138,3.0,15.0,76,0.00,,,0.00,WUHU216DAVISVP2,2013-04-19 21:51:00,
2013-04-19 17:56:00,70.0,62.2,29.65,SSW,204,5.4,15.0,76,0.00,,,0.00,WUHU216DAVISVP2,2013-04-19 21:56:00,
2013-04-19 18:01:00,69.9,62.1,29.65,South,191,3.8,15.0,76,0.00,,,0.00,WUHU216DAVISVP2,2013-04-19 22:01:00,
2013-04-19 18:06:00,69.8,62.0,29.65,SSW,207,2.7,13.0,76,0.00,,,0.00,WUHU216DAVISVP2,2013-04-19 22:06:00,
2013-04-19 18:11:00,69.7,61.9,29.65,SSW,204,1.8,12.0,76,0.00,,,0.00,WUHU216DAVISVP2,2013-04-19 22:11:00,
2013-04-19 18:16:00,69.7,61.9,29.65,SSW,202,4.0,10.0,76,0.00,,,0.00,WUHU216DAVISVP2,2013-04-19 22:16:00,
2013-04-19 18:21:00,69.6,62.2,29.65,SSW,201,1.9,10.0,77,0.00,,,0.00,WUHU216DAVISVP2,2013-04-19 22:21:00,
2013-04-19 18:26:00,69.5,62.1,29.65,SSW,192,2.0,10.0,77,0.00,,,0.00,WUHU216DAVISVP2,2013-04-19 22:26:00,
2013-04-19 18:31:00,69.3,62.2,29.65,SSE,157,3.1,9.0,78,0.00,,,0.00,WUHU216DAVISVP2,2013-04-19 22:31:00,
2013-04-19 18:36:00,69.0,62.0,29.64,SSW,196,3.5,9.0,78,0.00,,,0.00,WUHU216DAVISVP2,2013-04-19 22:36:00,
2013-04-19 18:41:00,68.8,62.1,29.64,SW,232,2.0,9.0,79,0.00,,,0.00,WUHU216DAVISVP2,2013-04-19 22:41:00,
2013-04-19 18:46:00,68.6,62.3,29.63,SSE,150,3.0,9.0,80,0.00,,,0.00,WUHU216DAVISVP2,2013-04-19 22:46:00,
2013-04-19 18:51:00,68.5,62.2,29.63,SSW,204,3.1,9.0,80,0.00,,,0.00,WUHU216DAVISVP2,2013-04-19 22:51:00,
2013-04-19 18:56:00,68.4,62.1,29.62,South,176,2.6,9.0,80,0.00,,,0.00,WUHU216DAVISVP2,2013-04-19 22:56:00,
2013-04-19 19:01:00,68.3,62.3,29.62,South,180,2.0,9.0,81,0.00,,,0.00,WUHU216DAVISVP2,2013-04-19 23:01:00,
2013-04-19 19:06:00,68.1,62.1,29.61,South,177,2.3,11.0,81,0.00,,,0.00,WUHU216DAVISVP2,2013-04-19 23:06:00,
2013-04-19 19:11:00,68.0,62.0,29.60,SSE,162,3.1,11.0,81,0.00,,,0.00,WUHU216DAVISVP2,2013-04-19 23:11:00,
2013-04-19 19:16:00,67.9,61.9,29.61,SSW,213,4.2,11.0,81,0.00,,,0.00,WUHU216DAVISVP2,2013-04-19 23:16:00,
2013-04-19 19:21:00,67.9,62.3,29.61,NNW,338,4.0,11.0,82,0.00,,,0.00,WUHU216DAVISVP2,2013-04-19 23:21:00,
2013-04-19 19:26:00,67.8,62.2,29.62,SW,222,2.8,11.0,82,0.00,,,0.00,WUHU216DAVISVP2,2013-04-19 23:26:00,
2013-04-19 19:31:00,67.8,62.2,29.63,SSE,159,2.0,11.0,82,0.00,,,0.00,WUHU216DAVISVP2,2013-04-19 23:31:00,
2013-04-19 19:36:00,67.8,62.2,29.63,South,191,2.4,11.0,82,0.00,,,0.00,WUHU216DAVISVP2,2013-04-19 23:36:00,
2013-04-19 19:41:00,67.9,62.3,29.63,SW,215,10.0,19.0,82,0.00,,,0.00,WUHU216DAVISVP2,2013-04-19 23:41:00,
2013-04-19 19:46:00,67.9,62.3,29.63,WSW,240,2.5,19.0,82,0.00,,,0.00,WUHU216DAVISVP2,2013-04-19 23:46:00,
2013-04-19 19:51:00,67.8,62.5,29.63,SW,234,9.0,19.0,83,0.00,,,0.00,WUHU216DAVISVP2,2013-04-19 23:51:00,
2013-04-19 19:56:00,67.7,62.4,29.62,SW,220,2.7,19.0,83,0.00,,,0.00,WUHU216DAVISVP2,2013-04-19 23:56:00,
2013-04-19 20:01:00,67.6,62.3,29.63,SW,233,4.0,13.0,83,0.00,,,0.00,WUHU216DAVISVP2,2013-04-20 00:01:00,
2013-04-19 20:06:00,67.5,62.2,29.63,WSW,249,6.0,13.0,83,0.00,,,0.00,WUHU216DAVISVP2,2013-04-20 00:06:00,
2013-04-19 20:11:00,67.5,62.5,29.63,South,177,3.0,10.0,84,0.00,,,0.00,WUHU216DAVISVP2,2013-04-20 00:11:00,
2013-04-19 20:16:00,67.5,62.5,29.63,SW,229,3.6,10.0,84,0.00,,,0.00,WUHU216DAVISVP2,2013-04-20 00:16:00,
2013-04-19 20:21:00,67.5,62.2,29.63,SW,216,5.1,10.0,83,0.00,,,0.00,WUHU216DAVISVP2,2013-04-20 00:21:00,
2013-04-19 20:26:00,67.6,62.3,29.63,South,175,5.0,12.0,83,0.00,,,0.00,WUHU216DAVISVP2,2013-04-20 00:26:00,
2013-04-19 20:31:00,67.6,62.3,29.63,SW,219,9.0,12.0,83,0.00,,,0.00,WUHU216DAVISVP2,2013-04-20 00:31:00,
2013-04-19 20:36:00,67.7,62.1,29.62,SW,215,4.4,12.0,82,0.00,,,0.00,WUHU216DAVISVP2,2013-04-20 00:36:00,
2013-04-19 20:41:00,67.8,62.2,29.61,SW,233,5.3,12.0,82,0.00,,,0.00,WUHU216DAVISVP2,2013-04-20 00:41:00,
2013-04-19 20:46:00,67.8,62.2,29.62,SSW,193,3.7,12.0,82,0.00,,,0.00,WUHU216DAVISVP2,2013-04-20 00:46:00,
2013-04-19 20:51:00,67.8,61.8,29.61,SW,221,7.0,12.0,81,0.00,,,0.00,WUHU216DAVISVP2,2013-04-20 00:51:00,
2013-04-19 20:56:00,67.8,61.8,29.61,SSW,206,3.2,12.0,81,0.00,,,0.00,WUHU216DAVISVP2,2013-04-20 00:56:00,
2013-04-19 21:01:00,67.8,61.8,29.61,SW,219,2.5,13.0,81,0.00,,,0.00,WUHU216DAVISVP2,2013-04-20 01:01:00,
2013-04-19 21:06:00,67.8,61.8,29.60,South,191,4.3,13.0,81,0.00,,,0.00,WUHU216DAVISVP2,2013-04-20 01:06:00,
2013-04-19 21:11:00,67.8,61.8,29.60,SSW,197,3.8,14.0,81,0.00,,,0.00,WUHU216DAVISVP2,2013-04-20 01:11:00,
2013-04-19 21:16:00,67.7,61.4,29.59,South,177,3.1,14.0,80,0.00,,,0.00,WUHU216DAVISVP2,2013-04-20 01:16:00,
2013-04-19 21:21:00,67.6,61.6,29.59,SSW,194,2.3,14.0,81,0.00,,,0.00,WUHU216DAVISVP2,2013-04-20 01:21:00,
2013-04-19 21:26:00,67.6,61.6,29.60,South,185,2.6,8.0,81,0.00,,,0.00,WUHU216DAVISVP2,2013-04-20 01:26:00,
2013-04-19 21:31:00,67.6,61.6,29.60,SSW,200,3.4,15.0,81,0.00,,,0.00,WUHU216DAVISVP2,2013-04-20 01:31:00,
2013-04-19 21:36:00,67.6,61.6,29.60,SSW,208,2.6,15.0,81,0.00,,,0.00,WUHU216DAVISVP2,2013-04-20 01:36:00,
2013-04-19 21:41:00,67.5,61.5,29.59,SW,223,1.5,15.0,81,0.00,,,0.00,WUHU216DAVISVP2,2013-04-20 01:41:00,
2013-04-19 21:46:00,67.4,61.4,29.60,SSW,207,2.5,15.0,81,0.00,,,0.00,WUHU216DAVISVP2,2013-04-20 01:46:00,
2013-04-19 21:51:00,67.4,61.8,29.60,SW,218,4.5,10.0,82,0.00,,,0.00,WUHU216DAVISVP2,2013-04-20 01:51:00,
2013-04-19 21:56:00,67.5,61.9,29.60,South,179,2.6,11.0,82,0.00,,,0.00,WUHU216DAVISVP2,2013-04-20 01:56:00,
2013-04-19 22:01:00,67.5,61.9,29.60,SSW,204,2.9,11.0,82,0.00,,,0.00,WUHU216DAVISVP2,2013-04-20 02:01:00,
2013-04-19 22:06:00,67.4,61.8,29.59,SSE,150,3.2,11.0,82,0.00,,,0.00,WUHU216DAVISVP2,2013-04-20 02:06:00,
2013-04-19 22:11:00,67.4,61.8,29.59,SSW,205,3.0,11.0,82,0.00,,,0.00,WUHU216DAVISVP2,2013-04-20 02:11:00,
2013-04-19 22:16:00,67.4,61.8,29.58,South,171,1.0,9.0,82,0.00,,,0.00,WUHU216DAVISVP2,2013-04-20 02:16:00,
2013-04-19 22:21:00,67.4,62.1,29.58,South,191,3.4,9.0,83,0.00,,,0.00,WUHU216DAVISVP2,2013-04-20 02:21:00,
2013-04-19 22:26:00,67.1,62.5,29.58,SSW,209,1.0,8.0,85,0.01,,,0.01,WUHU216DAVISVP2,2013-04-20 02:26:00,
2013-04-19 22:31:00,66.5,62.2,29.58,NE,36,1.0,7.0,86,0.01,,,0.01,WUHU216DAVISVP2,2013-04-20 02:31:00,
2013-04-19 22:36:00,66.0,62.3,29.58,SE,140,1.0,7.0,88,0.01,,,0.01,WUHU216DAVISVP2,2013-04-20 02:36:00,
2013-04-19 22:41:00,65.7,62.4,29.58,WSW,244,1.0,6.0,89,0.01,,,0.01,WUHU216DAVISVP2,2013-04-20 02:41:00,
2013-04-19 22:46:00,65.5,62.2,29.57,SW,227,5.0,5.0,89,0.01,,,0.01,WUHU216DAVISVP2,2013-04-20 02:46:00,
2013-04-19 22:51:00,65.4,62.1,29.57,SSE,155,1.6,6.0,89,0.01,,,0.01,WUHU216DAVISVP2,2013-04-20 02:51:00,
2013-04-19 22:56:00,65.4,62.4,29.57,SW,227,1.9,6.0,90,0.01,,,0.01,WUHU216DAVISVP2,2013-04-20 02:56:00,
2013-04-19 23:01:00,65.3,62.3,29.57,SSW,194,2.2,9.0,90,0.02,,,0.02,WUHU216DAVISVP2,2013-04-20 03:01:00,
2013-04-19 23:06:00,65.2,62.2,29.57,SE,137,1.4,9.0,90,0.02,,,0.02,WUHU216DAVISVP2,2013-04-20 03:06:00,
2013-04-19 23:11:00,65.2,62.2,29.57,SE,139,3.0,9.0,90,0.02,,,0.02,WUHU216DAVISVP2,2013-04-20 03:11:00,
2013-04-19 23:16:00,65.2,62.2,29.57,SSW,195,1.5,9.0,90,0.03,,,0.03,WUHU216DAVISVP2,2013-04-20 03:16:00,
2013-04-19 23:21:00,65.0,62.3,29.56,South,180,1.0,4.0,91,0.03,,,0.03,WUHU216DAVISVP2,2013-04-20 03:21:00,
2013-04-19 23:26:00,65.0,62.3,29.57,SSE,162,2.2,5.0,91,0.02,,,0.03,WUHU216DAVISVP2,2013-04-20 03:26:00,
2013-04-19 23:31:00,64.9,62.2,29.57,WSW,258,3.2,8.0,91,0.02,,,0.03,WUHU216DAVISVP2,2013-04-20 03:31:00,
2013-04-19 23:36:00,64.9,62.5,29.58,WSW,249,3.0,8.0,92,0.02,,,0.03,WUHU216DAVISVP2,2013-04-20 03:36:00,
2013-04-19 23:41:00,64.8,62.4,29.58,SW,225,1.6,8.0,92,0.10,,,0.11,WUHU216DAVISVP2,2013-04-20 03:41:00,
2013-04-19 23:46:00,64.5,62.4,29.58,WSW,247,0.0,8.0,93,0.11,,,0.12,WUHU216DAVISVP2,2013-04-20 03:46:00,
2013-04-19 23:51:00,64.4,62.6,29.58,SW,224,1.8,5.0,94,0.11,,,0.12,WUHU216DAVISVP2,2013-04-20 03:51:00,
2013-04-19 23:56:00,64.3,62.5,29.58,SSW,198,2.3,6.0,94,0.12,,,0.13,WUHU216DAVISVP2,2013-04-20 03:56:00,